Weather History for Storm Lake, IA

Change the Weather History Date:

Sunday, January 6, 2013

  Actual Average Record
Temperature  
Mean Temperature 14 °F -  
Max Temperature 23 °F 27 °F 42 °F (2012)
Min Temperature 8 °F 12 °F -16 °F (2014)
Degree Days  
Heating Degree Days 50    
Moisture  
Dew Point 12 °F    
Average Humidity 85    
Maximum Humidity 93    
Minimum Humidity 79    
Precipitation  
Precipitation 0.00 in - - ()
Sea Level Pressure  
Sea Level Pressure 30.16 in    
Wind  
Wind Speed 14 mph (WSW)    
Max Wind Speed 21 mph    
Max Gust Speed 26 mph    
Visibility 10 miles    
Events      
Averages and records for this station are not official NWS values.
T = Trace of Precipitation, MM = Missing Value Source: NWS Daily Summary

Daily Weather History Graph

Daily Weather History Graph

Search for Another Location

Airport:

Trip Planner

Search our weather history database for the weather conditions in past years. The results will help you decide how hot, cold, wet, or windy it might be!

Date:

Astronomy

Jan. 06, 2013 Rise Set
Actual Time 7:50 AM CST 5:03 PM CST
Civil Twilight 7:19 AM CST 5:35 PM CST
Nautical Twilight 6:43 AM CST 6:10 PM CST
Astronomical Twilight 6:09 AM CST 6:44 PM CST
Moon 2:03 AM CST (1/6) 12:33 PM CST (1/6)
Length of Visible Light 10h 15m
Length of Day
9h 12m
Waning Crescent, 33% of the Moon is Illuminated
Jan 6
Waning Crescent
Jan 11
New
Jan 18
First Quarter
Jan 26
Full
Feb 3
Last Quarter

Hourly Weather History & Observations

Time (CST) Temp. Windchill Dew Point Humidity Pressure Visibility Wind Dir Wind Speed Gust Speed Precip Events Conditions
12:15 AM 14.0 °F -1.4 °F 10.4 °F 86% 30.09 in 10.0 mi NW 15.0 mph - N/A   Overcast
12:35 AM 14.0 °F -3.0 °F 10.4 °F 86% 30.09 in 10.0 mi NW 18.4 mph - N/A   Mostly Cloudy
12:55 AM 14.0 °F -3.9 °F 10.4 °F 86% 30.09 in 10.0 mi NW 20.7 mph - N/A   Scattered Clouds
1:15 AM 14.0 °F -3.9 °F 10.4 °F 86% 30.11 in 10.0 mi NW 20.7 mph 26.5 mph N/A   Clear
1:35 AM 14.0 °F -2.5 °F 10.4 °F 86% 30.11 in 10.0 mi NW 17.3 mph - N/A   Clear
1:55 AM 14.0 °F -3.0 °F 8.6 °F 79% 30.11 in 10.0 mi NW 18.4 mph - N/A   Clear
2:15 AM 14.0 °F -2.5 °F 8.6 °F 79% 30.13 in 10.0 mi NW 17.3 mph - N/A   Clear
2:35 AM 14.0 °F -1.4 °F 8.6 °F 79% 30.14 in 10.0 mi NW 15.0 mph - N/A   Clear
2:55 AM 12.2 °F -3.7 °F 8.6 °F 85% 30.14 in 10.0 mi NW 15.0 mph - N/A   Clear
3:15 AM 12.2 °F -3.1 °F 6.8 °F 79% 30.15 in 10.0 mi NW 13.8 mph - N/A   Clear
3:35 AM 12.2 °F -3.1 °F 6.8 °F 79% 30.14 in 10.0 mi NW 13.8 mph - N/A   Clear
3:55 AM 12.2 °F -3.7 °F 6.8 °F 79% 30.15 in 10.0 mi WNW 15.0 mph - N/A   Clear
4:15 AM 12.2 °F -4.3 °F 6.8 °F 79% 30.15 in 10.0 mi WNW 16.1 mph - N/A   Clear
4:35 AM 10.4 °F -6.0 °F 6.8 °F 85% 30.16 in 10.0 mi WNW 15.0 mph - N/A   Clear
4:55 AM 8.6 °F -5.5 °F 5.0 °F 85% 30.16 in 10.0 mi West 10.4 mph - N/A   Mostly Cloudy
5:35 AM 8.6 °F -6.3 °F 5.0 °F 85% 30.17 in 10.0 mi WNW 11.5 mph - N/A   Clear
5:55 AM 8.6 °F -7.7 °F 5.0 °F 85% 30.17 in 10.0 mi WNW 13.8 mph - N/A   Clear
6:15 AM 8.6 °F -7.0 °F 5.0 °F 85% 30.18 in 10.0 mi West 12.7 mph - N/A   Clear
6:35 AM 8.6 °F -8.3 °F 5.0 °F 85% 30.18 in 10.0 mi West 15.0 mph - N/A   Clear
6:55 AM 8.6 °F -8.9 °F 6.8 °F 92% 30.18 in 10.0 mi West 16.1 mph - N/A   Clear
7:15 AM 8.6 °F -10.5 °F 6.8 °F 92% 30.18 in 10.0 mi West 19.6 mph - N/A   Clear
7:35 AM 10.4 °F -6.6 °F 6.8 °F 85% 30.19 in 9.0 mi West 16.1 mph - N/A   Clear
7:55 AM 8.6 °F -8.3 °F 6.8 °F 92% 30.19 in 9.0 mi West 15.0 mph - N/A   Clear
8:15 AM 8.6 °F -7.7 °F 6.8 °F 92% 30.20 in 9.0 mi West 13.8 mph - N/A   Clear
8:35 AM 8.6 °F -5.5 °F 5.0 °F 85% 30.21 in 9.0 mi West 10.4 mph - N/A   Clear
8:55 AM 10.4 °F -5.4 °F 6.8 °F 85% 30.21 in 9.0 mi West 13.8 mph - N/A   Clear
9:15 AM 10.4 °F -5.4 °F 8.6 °F 92% 30.22 in 9.0 mi West 13.8 mph - N/A   Clear
9:35 AM 12.2 °F -3.7 °F 8.6 °F 85% 30.22 in 9.0 mi West 15.0 mph - N/A   Clear
9:55 AM 14.0 °F -0.8 °F 10.4 °F 86% 30.22 in 9.0 mi West 13.8 mph - N/A   Clear
10:15 AM 14.0 °F -0.8 °F 10.4 °F 86% 30.23 in 9.0 mi West 13.8 mph - N/A   Clear
10:35 AM 14.0 °F -0.2 °F 10.4 °F 86% 30.23 in 9.0 mi West 12.7 mph - N/A   Clear
10:55 AM 15.8 °F 4.2 °F 10.4 °F 79% 30.24 in 9.0 mi West 9.2 mph - N/A   Clear
11:15 AM 15.8 °F 4.2 °F 12.2 °F 86% 30.24 in 9.0 mi West 9.2 mph - N/A   Clear
11:35 AM 17.6 °F 6.4 °F 12.2 °F 79% 30.23 in 9.0 mi West 9.2 mph - N/A   Clear
11:55 AM 17.6 °F 6.4 °F 14.0 °F 86% 30.23 in 10.0 mi WSW 9.2 mph - N/A   Clear
12:15 PM 17.6 °F 6.4 °F 14.0 °F 86% 30.22 in 10.0 mi WSW 9.2 mph - N/A   Clear
12:35 PM 19.4 °F 8.6 °F 14.0 °F 80% 30.21 in 10.0 mi WSW 9.2 mph - N/A   Clear
12:55 PM 19.4 °F 8.6 °F 15.8 °F 86% 30.21 in 10.0 mi WSW 9.2 mph - N/A   Clear
1:15 PM 19.4 °F 7.9 °F 15.8 °F 86% 30.20 in 10.0 mi WSW 10.4 mph - N/A   Clear
1:35 PM 21.2 °F 11.7 °F 15.8 °F 80% 30.19 in 10.0 mi SW 8.1 mph - N/A   Clear
1:55 PM 21.2 °F 10.1 °F 15.8 °F 80% 30.19 in 10.0 mi SW 10.4 mph - N/A   Clear
2:15 PM 21.2 °F 10.1 °F 15.8 °F 80% 30.19 in 10.0 mi SW 10.4 mph - N/A   Clear
2:35 PM 21.2 °F 11.7 °F 15.8 °F 80% 30.19 in 10.0 mi SW 8.1 mph - N/A   Clear
2:55 PM 21.2 °F 11.7 °F 17.6 °F 86% 30.19 in 10.0 mi SSW 8.1 mph - N/A   Clear
3:15 PM 21.2 °F 11.7 °F 15.8 °F 80% 30.19 in 10.0 mi SW 8.1 mph - N/A   Clear
3:35 PM 21.2 °F 10.9 °F 17.6 °F 86% 30.19 in 10.0 mi SSW 9.2 mph - N/A   Clear
3:55 PM 21.2 °F 10.9 °F 15.8 °F 80% 30.18 in 10.0 mi SSW 9.2 mph - N/A   Clear
4:15 PM 19.4 °F 7.9 °F 15.8 °F 86% 30.18 in 10.0 mi SSW 10.4 mph - N/A   Clear
4:35 PM 19.4 °F 7.9 °F 15.8 °F 86% 30.18 in 10.0 mi SSW 10.4 mph - N/A   Clear
4:55 PM 17.6 °F 5.0 °F 14.0 °F 86% 30.17 in 10.0 mi South 11.5 mph - N/A   Clear
5:15 PM 17.6 °F 5.7 °F 14.0 °F 86% 30.17 in 10.0 mi South 10.4 mph - N/A   Clear
5:35 PM 17.6 °F 3.7 °F 14.0 °F 86% 30.16 in 9.0 mi South 13.8 mph - N/A   Clear
5:55 PM 17.6 °F 4.3 °F 14.0 °F 86% 30.16 in 10.0 mi South 12.7 mph - N/A   Clear
6:15 PM 17.6 °F 4.3 °F 14.0 °F 86% 30.15 in 10.0 mi South 12.7 mph - N/A   Clear
6:35 PM 17.6 °F 3.2 °F 14.0 °F 86% 30.14 in 10.0 mi South 15.0 mph - N/A   Clear
6:55 PM 17.6 °F 3.7 °F 14.0 °F 86% 30.14 in 10.0 mi South 13.8 mph - N/A   Clear
7:15 PM 17.6 °F 2.7 °F 14.0 °F 86% 30.13 in 10.0 mi South 16.1 mph - N/A   Clear
7:35 PM 17.6 °F 3.7 °F 14.0 °F 86% 30.12 in 10.0 mi South 13.8 mph - N/A   Clear
7:55 PM 17.6 °F 5.0 °F 14.0 °F 86% 30.12 in - South 11.5 mph - N/A   Unknown
8:15 PM 15.8 °F 2.1 °F 12.2 °F 86% 30.11 in 10.0 mi South 12.7 mph - N/A   Clear
8:35 PM 15.8 °F 2.1 °F 12.2 °F 86% 30.10 in 10.0 mi South 12.7 mph - N/A   Clear
8:55 PM 14.0 °F -1.4 °F 12.2 °F 93% 30.09 in 10.0 mi South 15.0 mph - N/A   Clear
9:15 PM 17.6 °F 2.7 °F 15.8 °F 93% 30.09 in 10.0 mi South 16.1 mph - N/A   Clear
9:55 PM 19.4 °F 6.6 °F 15.8 °F 86% 30.08 in 10.0 mi South 12.7 mph - N/A   Clear
10:15 PM 19.4 °F 6.0 °F 15.8 °F 86% 30.07 in 10.0 mi South 13.8 mph - N/A   Clear
10:35 PM 21.2 °F 7.3 °F 17.6 °F 86% 30.06 in 10.0 mi South 16.1 mph - N/A   Clear
10:55 PM 21.2 °F 7.3 °F 17.6 °F 86% 30.06 in 10.0 mi South 16.1 mph - N/A   Clear
11:35 PM 21.2 °F 7.3 °F 17.6 °F 86% 30.05 in 10.0 mi South 16.1 mph - N/A   Clear
11:55 PM 23.0 °F 8.7 °F 19.4 °F 86% 30.04 in 10.0 mi South 18.4 mph - N/A   Clear